| time (UTC) | temp F | wind direction | speed knots | gust knots | rain 1hr in | rain 24hr in | rain mn in | humidity % | barometer mb |
| 20260902180007 | 85 | 0 | 0.0 | 0.0 | 0.00 | 0.00 | 0.00 | 62 | 929.0 |
| 20260902174505 | 85 | 0 | 0.0 | 0.0 | 0.00 | 0.00 | 0.00 | 61 | 929.4 |
| 20260902173505 | 84 | 0 | 0.0 | 0.0 | 0.00 | 0.00 | 0.00 | 64 | 928.8 |
| 20260902171505 | 86 | 0 | 0.0 | 0.0 | 0.00 | 0.00 | 0.00 | 60 | 929.8 |
| 20260902171005 | 86 | 0 | 0.0 | 0.0 | 0.00 | 0.00 | 0.00 | 61 | 929.4 |
| 20260902170505 | 86 | 0 | 0.0 | 0.0 | 0.00 | 0.00 | 0.00 | 60 | 929.6 |
| 20260902170005 | 85 | 0 | 0.0 | 0.0 | 0.00 | 0.00 | 0.00 | 66 | 927.2 |
| 20260902164004 | 86 | 0 | 0.0 | 0.0 | 0.00 | 0.00 | 0.00 | 62 | 929.4 |
| 20260902163506 | 86 | 0 | 0.0 | 0.0 | 0.00 | 0.00 | 0.00 | 60 | 929.9 |
| 20260902163005 | 87 | 0 | 0.0 | 0.0 | 0.00 | 0.00 | 0.00 | 60 | 928.8 |
| 20260902161505 | 87 | 0 | 0.0 | 0.0 | 0.00 | 0.00 | 0.00 | 62 | 929.2 |
| 20260902161004 | 86 | 0 | 0.0 | 0.0 | 0.00 | 0.00 | 0.00 | 65 | 929.0 |
| 20260902160505 | 85 | 0 | 0.0 | 0.0 | 0.00 | 0.00 | 0.00 | 64 | 929.2 |
| 20260902160007 | 85 | 0 | 0.0 | 0.0 | 0.00 | 0.00 | 0.00 | 62 | 927.7 |
| 20260902154505 | 85 | 0 | 0.0 | 0.0 | 0.00 | 0.00 | 0.00 | 64 | 926.8 |
| 20260902153505 | 86 | 0 | 0.0 | 0.0 | 0.00 | 0.00 | 0.00 | 61 | 929.9 |
| 20260902153004 | 85 | 0 | 0.0 | 0.0 | 0.00 | 0.00 | 0.00 | 64 | 929.0 |
| 20260902151504 | 84 | 0 | 0.0 | 0.0 | 0.00 | 0.00 | 0.00 | 72 | 925.5 |
| 20260902151005 | 83 | 0 | 0.0 | 0.0 | 0.00 | 0.00 | 0.00 | 72 | 926.7 |
| 20260902150505 | 83 | 0 | 0.0 | 0.0 | 0.00 | 0.00 | 0.00 | 71 | 925.9 |
| 20260902144004 | 83 | 0 | 0.0 | 0.0 | 0.00 | 0.00 | 0.00 | 74 | 926.1 |
| 20260902143504 | 82 | 0 | 0.0 | 0.0 | 0.00 | 0.00 | 0.00 | 74 | 925.4 |
| 20260902143004 | 82 | 0 | 0.0 | 0.0 | 0.00 | 0.00 | 0.00 | 75 | 924.0 |
| 20260902141004 | 78 | 0 | 0.0 | 0.0 | 0.00 | 0.00 | 0.00 | 81 | 922.3 |
| 20260902140504 | 77 | 0 | 0.0 | 0.0 | 0.00 | 0.00 | 0.00 | 85 | 921.6 |
| 20260902140004 | 76 | 0 | 0.0 | 0.0 | 0.00 | 0.00 | 0.00 | 88 | 921.6 |
| 20260902134505 | 74 | 0 | 0.0 | 0.0 | 0.00 | 0.00 | 0.00 | 93 | 922.2 |
| 20260902134004 | 74 | 0 | 0.0 | 0.0 | 0.00 | 0.00 | 0.00 | 95 | 923.5 |
| 20260902133504 | 73 | 0 | 0.0 | 0.0 | 0.00 | 0.00 | 0.00 | 95 | 923.6 |
| 20260902131504 | 70 | 0 | 0.0 | 0.0 | 0.00 | 0.00 | 0.00 | 96 | 925.1 |
| 20260902131004 | 69 | 0 | 0.0 | 0.0 | 0.00 | 0.00 | 0.00 | 96 | 924.8 |
| 20260902130504 | 68 | 0 | 0.0 | 0.0 | 0.00 | 0.00 | 0.00 | 96 | 924.5 |
| 20260902130004 | 66 | 0 | 0.0 | 0.0 | 0.00 | 0.00 | 0.00 | 96 | 924.3 |
| 20260902124504 | 63 | 0 | 0.0 | 0.0 | 0.00 | 0.00 | 0.00 | 95 | 923.7 |
| 20260902124004 | 62 | 0 | 0.0 | 0.0 | 0.00 | 0.00 | 0.00 | 95 | 923.6 |
| 20260902123504 | 62 | 0 | 0.0 | 0.0 | 0.00 | 0.00 | 0.00 | 95 | 923.5 |
| 20260902123004 | 61 | 0 | 0.0 | 0.0 | 0.00 | 0.00 | 0.00 | 95 | 923.4 |
| 20260902121003 | 60 | 0 | 0.0 | 0.0 | 0.00 | 0.00 | 0.00 | 95 | 923.3 |
| 20260902120504 | 60 | 0 | 0.0 | 0.0 | 0.00 | 0.00 | 0.00 | 95 | 923.2 |
| 20260902120004 | 60 | 0 | 0.0 | 0.0 | 0.00 | 0.00 | 0.00 | 95 | 923.2 |
| 20260902114005 | 59 | 0 | 0.0 | 0.0 | 0.00 | 0.00 | 0.00 | 95 | 923.2 |
| 20260902113506 | 59 | 0 | 0.0 | 0.0 | 0.00 | 0.00 | 0.00 | 95 | 923.2 |
| 20260902113006 | 59 | 0 | 0.0 | 0.0 | 0.00 | 0.00 | 0.00 | 95 | 923.2 |
| 20260902111505 | 59 | 0 | 0.0 | 0.0 | 0.00 | 0.00 | 0.00 | 95 | 923.1 |
| 20260902111005 | 59 | 0 | 0.0 | 0.0 | 0.00 | 0.00 | 0.00 | 95 | 923.1 |
| 20260902110008 | 59 | 0 | 0.0 | 0.0 | 0.00 | 0.00 | 0.00 | 95 | 923.0 |
| 20260902104505 | 60 | 0 | 0.0 | 0.0 | 0.00 | 0.00 | 0.00 | 95 | 923.0 |
| 20260902104005 | 60 | 0 | 0.0 | 0.0 | 0.00 | 0.00 | 0.00 | 95 | 922.9 |
| 20260902103506 | 60 | 0 | 0.0 | 0.0 | 0.00 | 0.00 | 0.00 | 95 | 922.9 |
| 20260902101506 | 60 | 0 | 0.0 | 0.0 | 0.00 | 0.00 | 0.00 | 95 | 922.7 |
| 20260902101005 | 60 | 0 | 0.0 | 0.0 | 0.00 | 0.00 | 0.00 | 95 | 922.7 |
| 20260902100505 | 60 | 0 | 0.0 | 0.0 | 0.00 | 0.00 | 0.00 | 95 | 922.7 |
| 20260902100005 | 60 | 0 | 0.0 | 0.0 | 0.00 | 0.00 | 0.00 | 95 | 922.8 |
| 20260902094505 | 60 | 0 | 0.0 | 0.0 | 0.00 | 0.00 | 0.00 | 95 | 922.8 |
| 20260902093505 | 60 | 0 | 0.0 | 0.0 | 0.00 | 0.00 | 0.00 | 95 | 922.8 |
| 20260902093005 | 60 | 0 | 0.0 | 0.0 | 0.00 | 0.00 | 0.00 | 95 | 922.8 |
| 20260902091005 | 61 | 0 | 0.0 | 0.0 | 0.00 | 0.00 | 0.00 | 95 | 922.8 |
| 20260902090005 | 61 | 0 | 0.0 | 0.0 | 0.00 | 0.00 | 0.00 | 95 | 922.9 |
| 20260902083004 | 61 | 0 | 0.0 | 0.0 | 0.00 | 0.00 | 0.00 | 95 | 922.9 |
| 20260902081504 | 61 | 0 | 0.0 | 0.0 | 0.00 | 0.00 | 0.00 | 95 | 922.9 |
| 20260902080005 | 61 | 0 | 0.0 | 0.0 | 0.00 | 0.00 | 0.00 | 95 | 922.9 |
| 20260902074505 | 61 | 0 | 0.0 | 0.0 | 0.00 | 0.00 | 0.00 | 95 | 922.9 |
| 20260902074004 | 62 | 0 | 0.0 | 0.0 | 0.00 | 0.00 | 0.00 | 95 | 923.0 |
| 20260902073005 | 62 | 0 | 0.0 | 0.0 | 0.00 | 0.00 | 0.00 | 95 | 923.0 |
| 20260902071005 | 62 | 0 | 0.0 | 0.0 | 0.00 | 0.00 | 0.00 | 95 | 923.1 |
| 20260902070505 | 62 | 0 | 0.0 | 0.0 | 0.00 | 0.00 | 0.00 | 95 | 923.1 |
| 20260902064504 | 62 | 0 | 0.0 | 0.0 | 0.00 | 0.00 | 0.00 | 95 | 923.1 |
| 20260902064004 | 62 | 0 | 0.0 | 0.0 | 0.00 | 0.00 | 0.00 | 95 | 923.1 |
| 20260902063505 | 62 | 0 | 0.0 | 0.0 | 0.00 | 0.00 | 0.00 | 95 | 923.1 |
| 20260902063004 | 62 | 0 | 0.0 | 0.0 | 0.00 | 0.00 | 0.00 | 95 | 923.1 |
| 20260902061504 | 62 | 0 | 0.0 | 0.0 | 0.00 | 0.00 | 0.00 | 95 | 923.1 |
| 20260902061005 | 62 | 0 | 0.0 | 0.0 | 0.00 | 0.00 | 0.00 | 95 | 923.1 |
| 20260902060004 | 63 | 0 | 0.0 | 0.0 | 0.00 | 0.00 | 0.00 | 95 | 923.1 |
| 20260902054505 | 63 | 0 | 0.0 | 0.0 | 0.00 | 0.00 | 0.00 | 95 | 923.2 |
| 20260902054005 | 63 | 0 | 0.0 | 0.0 | 0.00 | 0.00 | 0.00 | 95 | 923.2 |
| 20260902053504 | 63 | 0 | 0.0 | 0.0 | 0.00 | 0.00 | 0.00 | 95 | 923.2 |
| 20260902051504 | 64 | 0 | 0.0 | 0.0 | 0.00 | 0.00 | 0.00 | 95 | 923.2 |
| 20260902051004 | 64 | 0 | 0.0 | 0.0 | 0.00 | 0.00 | 0.00 | 95 | 923.2 |
| 20260902044506 | 64 | 0 | 0.0 | 0.0 | 0.00 | 0.00 | 0.00 | 95 | 923.1 |
| 20260902044004 | 64 | 0 | 0.0 | 0.0 | 0.00 | 0.00 | 0.00 | 95 | 923.1 |
| 20260902043504 | 64 | 0 | 0.0 | 0.0 | 0.00 | 0.00 | 0.00 | 95 | 923.2 |
| 20260902043004 | 64 | 0 | 0.0 | 0.0 | 0.00 | 0.00 | 0.00 | 95 | 923.2 |
| 20260902041505 | 65 | 0 | 0.0 | 0.0 | 0.00 | 0.00 | 0.00 | 95 | 923.2 |
| 20260902041004 | 65 | 0 | 0.0 | 0.0 | 0.00 | 0.00 | 0.00 | 95 | 923.3 |
| 20260902040004 | 65 | 0 | 0.0 | 0.0 | 0.00 | 0.00 | 0.00 | 95 | 923.3 |
| 20260902034505 | 65 | 0 | 0.0 | 0.0 | 0.00 | 0.00 | 0.00 | 95 | 923.3 |
| 20260902034004 | 65 | 0 | 0.0 | 0.0 | 0.00 | 0.00 | 0.00 | 95 | 923.4 |
| 20260902033504 | 66 | 0 | 0.0 | 0.0 | 0.00 | 0.00 | 0.00 | 95 | 923.4 |
| 20260902033004 | 66 | 0 | 0.0 | 0.0 | 0.00 | 0.00 | 0.00 | 95 | 923.4 |
| 20260902031504 | 66 | 0 | 0.0 | 0.0 | 0.00 | 0.00 | 0.00 | 95 | 923.5 |
| 20260902031004 | 66 | 0 | 0.0 | 0.0 | 0.00 | 0.00 | 0.00 | 95 | 923.5 |
| 20260902030504 | 66 | 0 | 0.0 | 0.0 | 0.00 | 0.00 | 0.00 | 95 | 923.6 |
| 20260902024004 | 66 | 0 | 0.0 | 0.0 | 0.00 | 0.00 | 0.00 | 95 | 923.6 |
| 20260902023506 | 66 | 0 | 0.0 | 0.0 | 0.00 | 0.00 | 0.00 | 95 | 923.6 |
| 20260902023006 | 66 | 0 | 0.0 | 0.0 | 0.00 | 0.00 | 0.00 | 95 | 923.5 |
| 20260902021505 | 67 | 0 | 0.0 | 0.0 | 0.00 | 0.00 | 0.00 | 95 | 923.6 |
| 20260902021005 | 67 | 0 | 0.0 | 0.0 | 0.00 | 0.00 | 0.00 | 94 | 923.6 |
| 20260902020005 | 67 | 0 | 0.0 | 0.0 | 0.00 | 0.00 | 0.00 | 94 | 923.6 |
| 20260902014506 | 67 | 0 | 0.0 | 0.0 | 0.00 | 0.00 | 0.00 | 94 | 923.5 |
| 20260902014005 | 67 | 0 | 0.0 | 0.0 | 0.00 | 0.00 | 0.00 | 94 | 923.5 |
| 20260902013505 | 67 | 0 | 0.0 | 0.0 | 0.00 | 0.00 | 0.00 | 93 | 923.4 |
| 20260902011505 | 68 | 0 | 0.0 | 0.0 | 0.00 | 0.00 | 0.00 | 93 | 923.2 |
| 20260902011006 | 68 | 0 | 0.0 | 0.0 | 0.00 | 0.00 | 0.00 | 93 | 923.2 |
| 20260902010505 | 69 | 0 | 0.0 | 0.0 | 0.00 | 0.00 | 0.00 | 92 | 923.1 |
| 20260902010005 | 69 | 0 | 0.0 | 0.0 | 0.00 | 0.00 | 0.00 | 92 | 923.1 |
| 20260902004505 | 70 | 0 | 0.0 | 0.0 | 0.00 | 0.00 | 0.00 | 92 | 922.9 |
| 20260902004005 | 70 | 0 | 0.0 | 0.0 | 0.00 | 0.00 | 0.00 | 91 | 922.9 |
| 20260902003505 | 70 | 0 | 0.0 | 0.0 | 0.00 | 0.00 | 0.00 | 91 | 922.8 |
| 20260902003006 | 71 | 0 | 0.0 | 0.0 | 0.00 | 0.00 | 0.00 | 91 | 922.8 |
| 20260902001505 | 72 | 0 | 0.0 | 0.0 | 0.00 | 0.00 | 0.00 | 90 | 922.9 |
| 20260902001006 | 72 | 0 | 0.0 | 0.0 | 0.00 | 0.00 | 0.00 | 89 | 922.8 |
| 20260902000505 | 73 | 0 | 0.0 | 0.0 | 0.00 | 0.00 | 0.00 | 90 | 922.9 |
| 20260902000005 | 73 | 0 | 0.0 | 0.0 | 0.00 | 0.00 | 0.00 | 89 | 922.7 |
| 20260901234505 | 75 | 0 | 0.0 | 0.0 | 0.00 | 0.00 | 0.00 | 87 | 922.5 |
| 20260901233505 | 76 | 0 | 0.0 | 0.0 | 0.00 | 0.00 | 0.00 | 85 | 922.2 |
| 20260901233005 | 77 | 0 | 0.0 | 0.0 | 0.00 | 0.00 | 0.00 | 82 | 922.1 |
| 20260901231505 | 80 | 0 | 0.0 | 0.0 | 0.00 | 0.00 | 0.00 | 79 | 922.4 |
| 20260901231005 | 81 | 0 | 0.0 | 0.0 | 0.00 | 0.00 | 0.00 | 77 | 922.9 |
| 20260901230505 | 82 | 0 | 0.0 | 0.0 | 0.00 | 0.00 | 0.00 | 75 | 923.2 |
| 20260901230005 | 84 | 0 | 0.0 | 0.0 | 0.00 | 0.00 | 0.00 | 73 | 923.7 |
| 20260901224005 | 88 | 0 | 0.0 | 0.0 | 0.00 | 0.00 | 0.00 | 62 | 927.5 |
| 20260901223505 | 88 | 0 | 0.0 | 0.0 | 0.00 | 0.00 | 0.00 | 63 | 927.3 |
| 20260901223006 | 88 | 0 | 0.0 | 0.0 | 0.00 | 0.00 | 0.00 | 60 | 928.0 |
| 20260901221504 | 91 | 0 | 0.0 | 0.0 | 0.00 | 0.00 | 0.00 | 58 | 928.3 |
| 20260901221005 | 91 | 0 | 0.0 | 0.0 | 0.00 | 0.00 | 0.00 | 55 | 928.9 |
| 20260901220504 | 91 | 0 | 0.0 | 0.0 | 0.00 | 0.00 | 0.00 | 56 | 928.7 |
| 20260901214505 | 87 | 0 | 0.0 | 0.0 | 0.00 | 0.00 | 0.00 | 63 | 927.3 |
| 20260901214004 | 86 | 0 | 0.0 | 0.0 | 0.00 | 0.00 | 0.00 | 64 | 927.0 |
| 20260901213505 | 85 | 0 | 0.0 | 0.0 | 0.00 | 0.00 | 0.00 | 66 | 926.0 |
| 20260901213005 | 85 | 0 | 0.0 | 0.0 | 0.00 | 0.00 | 0.00 | 68 | 925.7 |
| 20260901211504 | 87 | 0 | 0.0 | 0.0 | 0.00 | 0.01 | 0.00 | 58 | 928.8 |
| 20260901211004 | 87 | 0 | 0.0 | 0.0 | 0.00 | 0.01 | 0.00 | 56 | 928.9 |
| 20260901210505 | 87 | 0 | 0.0 | 0.0 | 0.00 | 0.02 | 0.00 | 60 | 928.8 |
| 20260901204505 | 88 | 0 | 0.0 | 0.0 | 0.00 | 0.10 | 0.00 | 57 | 928.8 |
| 20260901204005 | 87 | 0 | 0.0 | 0.0 | 0.00 | 0.12 | 0.00 | 57 | 929.2 |
| 20260901203504 | 88 | 0 | 0.0 | 0.0 | 0.00 | 0.16 | 0.00 | 54 | 929.4 |
| 20260901203004 | 88 | 0 | 0.0 | 0.0 | 0.00 | 0.22 | 0.00 | 54 | 929.2 |
| 20260901201504 | 86 | 0 | 0.0 | 0.0 | 0.00 | 0.31 | 0.00 | 62 | 927.6 |
| 20260901200504 | 85 | 0 | 0.0 | 0.0 | 0.00 | 0.31 | 0.00 | 66 | 926.8 |
| 20260901194504 | 86 | 0 | 0.0 | 0.0 | 0.00 | 0.31 | 0.00 | 59 | 928.8 |
| 20260901194004 | 87 | 0 | 0.0 | 0.0 | 0.00 | 0.31 | 0.00 | 54 | 929.6 |
| 20260901193004 | 87 | 0 | 0.0 | 0.0 | 0.00 | 0.31 | 0.00 | 56 | 929.0 |
| 20260901191504 | 87 | 0 | 0.0 | 0.0 | 0.00 | 0.31 | 0.00 | 56 | 929.3 |
| 20260901191005 | 87 | 0 | 0.0 | 0.0 | 0.00 | 0.31 | 0.00 | 54 | 929.5 |
| 20260901190505 | 87 | 0 | 0.0 | 0.0 | 0.00 | 0.31 | 0.00 | 57 | 929.4 |
| 20260901190004 | 87 | 0 | 0.0 | 0.0 | 0.00 | 0.31 | 0.00 | 61 | 928.9 |
| 20260901184504 | 87 | 0 | 0.0 | 0.0 | 0.00 | 0.31 | 0.00 | 58 | 928.9 |
| 20260901184004 | 86 | 0 | 0.0 | 0.0 | 0.00 | 0.31 | 0.00 | 58 | 928.9 |
| 20260901183504 | 86 | 0 | 0.0 | 0.0 | 0.00 | 0.31 | 0.00 | 59 | 928.4 |
| 20260901183004 | 86 | 0 | 0.0 | 0.0 | 0.00 | 0.31 | 0.00 | 60 | 929.0 |
| 20260901181504 | 86 | 0 | 0.0 | 0.0 | 0.00 | 0.31 | 0.00 | 61 | 928.9 |
| 20260901181004 | 85 | 0 | 0.0 | 0.0 | 0.00 | 0.31 | 0.00 | 57 | 929.9 |
| 20260901180504 | 85 | 0 | 0.0 | 0.0 | 0.00 | 0.31 | 0.00 | 60 | 928.9 |